Weather Roundup
Issued by NWS Springfield, MO

Home | Current Version | Previous Version | Text Only | Print | Product List | Glossary On
Versions: 1 2 3 4 5 6 7 8 9 10 11 12 13 14 15 16 17 18 19 20 21 22 23 24 25 26 27 28 29 30 31 32 33 34 35 36 37 38 39 40 41 42 43 44 45 46 47 48 49 50
000
NZUS99 KSGF 280407
HRRSGF

HOURLY WEATHER
NATIONAL WEATHER SERVICE SPRINGFIELD MO
1100 PM CDT MON JUL 27 2015

......SGF CWA......

CITY           SKY/WX    TMP DP  RH WIND       PRES   REMARKS
SPRINGFIELD    CLEAR     83  75  77 SE8       29.97R HX  90
JOPLIN         CLEAR     83  76  79 SE5       29.94R HX  91
WEST PLAINS    MOCLDY    76  72  87 CALM      30.01R
ROLLA          PTCLDY    79  74  84 E13       29.96S THUNDER
OSAGE BEACH    PTCLDY    81  77  89 S5        29.94F
BRANSON        CLEAR     81  75  83 CALM      29.99S

......SURROUNDING SGF CWA......

CITY           SKY/WX    TMP DP  RH WIND       PRES   REMARKS
CHANUTE        CLEAR     82  75  79 S8        29.91R
PARSONS        CLEAR     83  76  79 S5        29.92R HX  91
COFFEYVILLE    CLEAR     82  76  81 S6        29.91R
EMPORIA        CLEAR     81  72  74 SE9       29.89R
GROVE OK       CLEAR     82  79  89 CALM      29.94S HX  93
ROGERS AR      CLEAR     82  76  81 SE6       29.99R
SILOAM SPRINGS CLEAR     81  72  74 SE7       29.95S
HARRISON AR    CLEAR     79  76  90 SE5       29.99S
NEAR YELLVILLE CLEAR     79  72  78 NE3       29.95S

......KANSAS AND MISSOURI......

CITY           SKY/WX    TMP DP  RH WIND       PRES   REMARKS
KANSAS CTY INT PTCLDY    81  73  76 SE6       29.90R
DOWNTOWN KC    CLEAR     88  73  61 SE9       29.89R HX  95
COLUMBIA       LGT RAIN  75  71  87 E12       29.96S
SEDALIA        CLEAR     80  72  76 E9        29.95R
ST JOSEPH      CLEAR     78  72  81 SE12      29.89R
ST LOUIS       CLOUDY    78  69  73 SE9       29.96F
SPIRIT OF STL  MOCLDY    77  71  82 S5        29.95F
KIRKSVILLE     CLEAR     74  71  91 SE8       29.95F
WICHITA        PTCLDY    85  67  54 S15       29.87R
TOPEKA         CLEAR     83  73  72 SE7       29.88R
OLATHE         CLEAR     81  74  79 SE5       29.91R

......TENNESSEE......

CITY           SKY/WX    TMP DP  RH WIND       PRES   REMARKS
MEMPHIS        PTCLDY    85  76  74 S5        29.97R HX  94
NASHVILLE      MOCLDY    84  75  74 CALM      30.00R HX  92

......ARKANSAS.......

CITY           SKY/WX    TMP DP  RH WIND       PRES   REMARKS
FAYETTEVILLE   CLEAR     78  77  96 S3        29.98R
FT SMITH       CLEAR     86  71  60 CALM      29.93R HX  91
LITTLE ROCK    PTCLDY    85  76  74 S5        29.94R HX  94

......OKLAHOMA.......

CITY           SKY/WX    TMP DP  RH WIND       PRES   REMARKS
TULSA          PTCLDY    87  77  72 SE7       29.89R HX  99
PONCA CITY     CLEAR     85  73  67 SE15      29.88R HX  91
MCALESTER      CLEAR     86  71  60 SE6       29.94R HX  91
OKLAHOMA CITY  CLEAR     80  72  76 S7        29.92R

......IOWA............

CITY           SKY/WX    TMP DP  RH WIND       PRES   REMARKS
DES MOINES     PTCLDY    74  69  85 SE8       29.91S
QUAD CITIES    CLOUDY    75  72  90 E7        29.94F

......ILLINOIS........

CITY           SKY/WX    TMP DP  RH WIND       PRES   REMARKS
QUINCY         CLOUDY    73  71  93 CALM      29.93F
CHICAGO        MOCLDY    74  65  73 E6        30.02R



USA.gov is the U.S. government's official web portal to all federal, state and local government web resources and services.